Location: Unspecified
(0.0000°N, 0.0000°E)
Time: 01:43:05
(UTC+00:00)

Courier 1B - All Passes

Search period start: 17 October 2017 00:00
Search period end: 27 October 2017 00:00
Orbit: 963 x 1209 km, 28.3° (Epoch: 16 October)

Date Brightness Start Highest point End Pass type
(mag) Time Alt. Az. Time Alt. Az. Time Alt. Az.
17 Oct - 00:32:02 10° WNW 00:37:14 21° NNW 00:42:39 10° NNE night (unlit)
17 Oct - 06:24:16 10° N 06:26:54 12° NNE 06:29:32 10° NE daylight
17 Oct - 08:15:29 10° NW 08:22:19 34° NNE 08:28:51 10° E daylight
17 Oct - 10:09:13 10° WNW 10:16:46 77° SSW 10:23:50 10° SE daylight
17 Oct - 12:05:44 10° WSW 12:11:07 22° SSW 12:16:17 10° SSE daylight
17 Oct - 19:49:14 10° SSW 19:54:32 25° SSE 20:00:01 10° E visible
17 Oct - 21:41:58 10° WSW 21:48:43 90° NW 21:55:55 10° ENE visible
17 Oct - 23:37:21 10° W 23:43:09 27° NNW 23:49:14 10° NNE night (unlit)
18 Oct - 07:21:58 10° NNW 07:28:12 26° NNE 07:34:15 10° E daylight
18 Oct - 09:15:10 10° NW 09:22:52 79° NNE 09:30:07 10° ESE daylight
18 Oct - 11:10:48 10° W 11:17:11 31° SSW 11:23:14 10° SSE daylight
18 Oct - 18:56:21 10° SSW 19:00:38 18° SSE 19:05:00 10° ESE visible
18 Oct - 20:48:22 10° SW 20:54:56 65° SSE 21:01:51 10° ENE visible
18 Oct - 22:42:58 10° W 22:49:09 36° NNW 22:55:43 10° NE night (unlit)
19 Oct - 00:41:37 10° NW 00:44:19 12° NNW 00:47:04 10° N night (unlit)
19 Oct - 06:28:38 10° NNW 06:34:01 20° NNE 06:39:18 10° ENE daylight
19 Oct - 08:21:16 10° NW 08:28:54 59° NNE 08:36:11 10° ESE daylight
19 Oct - 10:16:09 10° W 10:23:15 43° SSW 10:29:58 10° SE daylight
19 Oct - 12:14:55 10° SW 12:18:00 13° SSW 12:21:01 10° S daylight
19 Oct - 18:03:52 10° S 18:06:40 13° SSE 18:09:27 10° SE visible
19 Oct - 19:54:56 10° SW 20:01:10 46° SSE 20:07:38 10° ENE visible
19 Oct - 21:48:50 10° WSW 21:55:16 49° NNW 22:02:05 10° NE visible
19 Oct - 23:46:02 10° WNW 23:50:05 16° NNW 23:54:14 10° NNE night (unlit)
20 Oct - 05:35:33 10° NNW 05:39:44 15° NNE 05:43:53 10° NE daylight
20 Oct - 07:27:31 10° NW 07:34:53 44° NNE 07:42:01 10° E daylight
20 Oct - 09:21:44 10° WNW 09:29:19 60° SSW 09:36:31 10° SE daylight
20 Oct - 11:19:04 10° WSW 11:23:53 18° SSW 11:28:33 10° SSE daylight
20 Oct - 19:01:40 10° SSW 19:07:23 32° SSE 19:13:14 10° E visible
20 Oct - 20:54:55 10° WSW 21:01:27 69° NNW 21:08:21 10° NE visible
20 Oct - 22:51:03 10° WNW 22:55:57 21° NNW 23:01:04 10° NNE night (unlit)
21 Oct - 04:43:04 10° N 04:45:21 11° NNE 04:47:38 10° NE visible
21 Oct - 06:33:56 10° NNW 06:40:48 33° NNE 06:47:34 10° E daylight
21 Oct - 08:27:32 10° WNW 08:35:23 82° SSW 08:42:52 10° ESE daylight
21 Oct - 10:23:50 10° W 10:29:51 25° SSW 10:35:38 10° SSE daylight
21 Oct - 18:08:33 10° SSW 18:13:33 23° SSE 18:18:35 10° ESE visible
21 Oct - 20:01:11 10° WSW 20:07:42 85° SSE 20:14:30 10° ENE visible
21 Oct - 21:56:25 10° W 22:01:57 27° NNW 22:07:44 10° NNE night (unlit)
22 Oct - 05:40:31 10° NNW 05:46:40 25° NNE 05:52:48 10° ENE daylight
22 Oct - 07:33:32 10° NW 07:41:24 75° NNE 07:49:01 10° ESE daylight
22 Oct - 09:28:57 10° W 09:35:50 35° SSW 09:42:26 10° SE daylight
22 Oct - 11:29:20 10° SW 11:30:55 11° SSW 11:32:29 10° S daylight
22 Oct - 17:15:38 10° SSW 17:19:38 17° SSE 17:23:37 10° ESE daylight
22 Oct - 19:07:35 10° SW 19:13:58 60° SSE 19:20:30 10° ENE visible
22 Oct - 21:02:06 10° W 21:08:04 37° NNW 21:14:18 10° NE visible
22 Oct - 23:00:44 10° NW 23:03:01 12° NNW 23:05:19 10° N night (unlit)
23 Oct - 04:47:19 10° NNW 04:52:28 19° NNE 04:57:38 10° ENE visible
23 Oct - 06:39:42 10° NW 06:47:23 56° NNE 06:54:56 10° ESE daylight
23 Oct - 08:34:22 10° WNW 08:41:50 48° SSW 08:49:02 10° SE daylight
23 Oct - 10:32:37 10° WSW 10:36:42 15° SSW 10:40:41 10° S daylight
23 Oct - 16:23:10 10° S 16:25:37 12° SSE 16:28:02 10° SE daylight
23 Oct - 18:14:08 10° SW 18:20:14 42° SSE 18:26:21 10° E visible
23 Oct - 20:07:59 10° WSW 20:14:15 51° NNW 20:20:45 10° NE visible
23 Oct - 22:05:07 10° WNW 22:08:52 15° NNW 22:12:43 10° NNE night (unlit)
24 Oct - 03:54:27 10° N 03:58:11 14° NNE 04:01:56 10° NE visible
24 Oct - 05:46:03 10° NW 05:53:20 41° NNE 06:00:36 10° E daylight
24 Oct - 07:40:03 10° WNW 07:47:51 65° SSW 07:55:27 10° SE daylight
24 Oct - 09:37:02 10° WSW 09:42:32 21° SSW 09:47:53 10° SSE daylight
24 Oct - 17:20:49 10° SSW 17:26:27 30° SSE 17:32:01 10° E daylight
24 Oct - 19:14:04 10° WSW 19:20:31 73° NNW 19:27:05 10° NE visible
24 Oct - 21:10:07 10° WNW 21:14:50 20° NNW 21:19:41 10° NNE visible
25 Oct - 03:02:59 10° NNE 03:03:50 10° NNE 03:04:41 10° NNE visible
25 Oct - 04:52:35 10° NNW 04:59:15 31° NNE 05:06:00 10° E visible
25 Oct - 06:45:56 10° WNW 06:53:50 87° SSW 07:01:39 10° ESE daylight
25 Oct - 08:41:56 10° W 08:48:25 28° SSW 08:54:44 10° SSE daylight
25 Oct - 16:27:38 10° SSW 16:32:35 22° SSE 16:37:26 10° ESE daylight
25 Oct - 18:20:18 10° WSW 18:26:47 80° SSE 18:33:19 10° ENE visible
25 Oct - 20:15:31 10° W 20:20:55 28° NNW 20:26:28 10° NNE visible
26 Oct - 03:59:19 10° NNW 04:05:07 23° NNE 04:11:02 10° ENE visible
26 Oct - 05:52:03 10° NW 05:59:50 71° NNE 06:07:39 10° ESE daylight
26 Oct - 07:47:11 10° W 07:54:20 38° SSW 08:01:23 10° SE daylight
26 Oct - 09:46:30 10° SW 09:49:31 12° SSW 09:52:29 10° S daylight
26 Oct - 15:34:37 10° SSW 15:38:36 16° SSE 15:42:30 10° ESE daylight
26 Oct - 17:26:40 10° SW 17:33:04 56° SSE 17:39:24 10° ENE daylight
26 Oct - 19:21:09 10° W 19:27:06 38° NNW 19:33:08 10° NE visible
26 Oct - 21:19:54 10° NW 21:21:51 11° NNW 21:23:50 10° N visible
